Location: Newark
(45.4422°N, 16.2769°E)
Time: 23:03:15
(UTC+00:00)

Vanguard 2 - Pass Details

Date: 08 December 2019
Orbit: 553 x 2938 km, 32.9° (Epoch: 24 January)

Event Time Altitude Azimuth Distance (km) Brightness Sun altitude
Rises 07:31:46 0° 276° (W) 6,610 11.8 8.8°
Reaches altitude 10° 07:38:07 10° 262° (W) 5,304 11.5 9.5°
Maximum altitude 07:47:23 20° 224° (SW) 3,916 11.3 10.6°
Drops below altitude 10° 07:54:39 10° 183° (S) 4,008 12.0 11.5°
Sets 07:58:33 0° 167° (SSE) 4,592 12.8 11.9°
